EN

Hourly Weather Dziarny

Today, 22 October, Thursday

Time Temperature Precipitation Wind Pressure Humidity
00:00 +9°C° 0 mm 5 mps 747 mmHg 80%
01:00 +9°C° 0 mm 5 mps 747 mmHg 80%
02:00 +9°C° 0 mm 6 mps 747 mmHg 79%
03:00 +9°C° 0 mm 6 mps 747 mmHg 77%
04:00 +9°C° 0 mm 6 mps 747 mmHg 76%
05:00 +9°C° 0 mm 6 mps 747 mmHg 76%
06:00 +10°C° 0 mm 6 mps 747 mmHg 76%
07:00 +10°C° 0 mm 6 mps 747 mmHg 76%
08:00 +11°C° 0 mm 7 mps 748 mmHg 74%
09:00 +13°C° 0 mm 8 mps 748 mmHg 72%
10:00 +15°C° 0 mm 8 mps 749 mmHg 70%
11:00 +16°C° 0 mm 8 mps 749 mmHg 70%
12:00 +16°C° 0 mm 7 mps 749 mmHg 69%
13:00 +17°C° 0 mm 7 mps 750 mmHg 69%
14:00 +16°C° 0 mm 6 mps 750 mmHg 72%
15:00 +16°C° 0 mm 5 mps 750 mmHg 75%
16:00 +15°C° 0 mm 4 mps 750 mmHg 78%
17:00 +14°C° 0 mm 4 mps 750 mmHg 81%
18:00 +13°C° 0 mm 4 mps 750 mmHg 84%
19:00 +13°C° 0 mm 4 mps 750 mmHg 87%
20:00 +12°C° 0 mm 4 mps 750 mmHg 88%
21:00 +12°C° 0 mm 4 mps 750 mmHg 89%
22:00 +12°C° 0 mm 4 mps 750 mmHg 90%
23:00 +12°C° 0 mm 4 mps 749 mmHg 90%

Tomorrow, 23 October, Friday

Time Temperature Precipitation Wind Pressure Humidity
00:00 +12°C° 0 mm 4 mps 749 mmHg 90%
01:00 +12°C° 0 mm 4 mps 749 mmHg 90%
02:00 +12°C° 0 mm 4 mps 749 mmHg 90%
03:00 +12°C° 0 mm 4 mps 748 mmHg 90%
04:00 +12°C° 0 mm 5 mps 748 mmHg 90%
05:00 +12°C° 0.5 mm 5 mps 748 mmHg 90%
06:00 +12°C° 0.5 mm 5 mps 748 mmHg 91%
07:00 +12°C° 0.5 mm 5 mps 748 mmHg 92%
08:00 +13°C° 0.2 mm 5 mps 748 mmHg 90%
09:00 +13°C° 0.2 mm 5 mps 748 mmHg 88%
10:00 +14°C° 0.2 mm 5 mps 749 mmHg 86%
11:00 +14°C° 0 mm 5 mps 749 mmHg 79%
12:00 +15°C° 0 mm 5 mps 749 mmHg 72%
13:00 +16°C° 0 mm 5 mps 749 mmHg 65%
14:00 +15°C° 0 mm 4 mps 749 mmHg 68%
15:00 +14°C° 0 mm 3 mps 749 mmHg 71%
16:00 +14°C° 0 mm 2 mps 748 mmHg 75%
17:00 +14°C° 0 mm 2 mps 749 mmHg 77%
18:00 +13°C° 0 mm 2 mps 749 mmHg 80%
19:00 +12°C° 0 mm 1 mps 749 mmHg 82%
20:00 +12°C° 0 mm 1 mps 748 mmHg 83%
21:00 +12°C° 0 mm 1 mps 748 mmHg 84%
22:00 +12°C° 0 mm 1 mps 748 mmHg 84%
23:00 +12°C° 0.1 mm 1 mps 748 mmHg 86%

Day after tomorrow, 24 October, Saturday

Time Temperature Precipitation Wind Pressure Humidity
00:00 +12°C° 0.1 mm 1 mps 748 mmHg 88%
01:00 +12°C° 0.1 mm 1 mps 748 mmHg 90%
02:00 +12°C° 1.8 mm 1 mps 747 mmHg 92%
03:00 +12°C° 1.8 mm 1 mps 747 mmHg 95%
04:00 +12°C° 1.8 mm 1 mps 747 mmHg 97%
05:00 +12°C° 2.2 mm 1 mps 747 mmHg 97%
06:00 +12°C° 2.2 mm 1 mps 747 mmHg 97%
07:00 +12°C° 2.2 mm 1 mps 747 mmHg 97%
08:00 +13°C° 0 mm 2 mps 747 mmHg 92%
09:00 +13°C° 0 mm 2 mps 747 mmHg 87%
10:00 +13°C° 0 mm 3 mps 748 mmHg 82%
11:00 +14°C° 0 mm 4 mps 748 mmHg 80%
12:00 +14°C° 0 mm 5 mps 748 mmHg 78%
13:00 +15°C° 0 mm 5 mps 749 mmHg 75%
14:00 +14°C° 0.1 mm 5 mps 749 mmHg 77%
15:00 +14°C° 0.1 mm 5 mps 749 mmHg 78%
16:00 +13°C° 0.1 mm 5 mps 749 mmHg 79%
17:00 +12°C° 0 mm 4 mps 750 mmHg 82%
18:00 +11°C° 0 mm 4 mps 750 mmHg 84%
19:00 +10°C° 0 mm 4 mps 751 mmHg 86%
20:00 +10°C° 0 mm 3 mps 751 mmHg 86%
21:00 +10°C° 0 mm 3 mps 751 mmHg 85%
22:00 +9°C° 0 mm 3 mps 752 mmHg 84%
23:00 +9°C° 0 mm 3 mps 752 mmHg 86%

, 25 October, Sunday

Time Temperature Precipitation Wind Pressure Humidity
00:00 +9°C° 0 mm 3 mps 752 mmHg 89%
01:00 +8°C° 0 mm 2 mps 752 mmHg 92%
02:00 +8°C° 0 mm 2 mps 752 mmHg 93%
03:00 +8°C° 0 mm 2 mps 752 mmHg 94%
04:00 +8°C° 0 mm 2 mps 752 mmHg 95%
05:00 +8°C° 0 mm 2 mps 752 mmHg 95%
06:00 +8°C° 0 mm 2 mps 752 mmHg 94%
07:00 +8°C° 0 mm 2 mps 752 mmHg 94%
08:00 +9°C° 0 mm 2 mps 753 mmHg 89%
09:00 +11°C° 0 mm 3 mps 753 mmHg 84%
10:00 +13°C° 0 mm 3 mps 753 mmHg 78%
11:00 +13°C° 0 mm 3 mps 753 mmHg 75%
12:00 +14°C° 0 mm 4 mps 753 mmHg 71%
13:00 +15°C° 0 mm 4 mps 752 mmHg 67%
14:00 +14°C° 0 mm 3 mps 752 mmHg 71%
15:00 +13°C° 0 mm 3 mps 752 mmHg 75%
16:00 +13°C° 0 mm 2 mps 752 mmHg 78%
17:00 +12°C° 0 mm 3 mps 752 mmHg 82%
18:00 +11°C° 0 mm 3 mps 752 mmHg 85%
19:00 +10°C° 0 mm 3 mps 752 mmHg 88%
20:00 +10°C° 0 mm 3 mps 752 mmHg 89%
21:00 +10°C° 0 mm 4 mps 752 mmHg 89%
22:00 +10°C° 0 mm 4 mps 752 mmHg 89%
23:00 +10°C° 0 mm 4 mps 751 mmHg 90%

25 October, Sunday

Time Temperature Precipitation Wind Pressure Humidity
00:00 +9°C° 0 mm 3 mps 752 mmHg 89%
01:00 +8°C° 0 mm 2 mps 752 mmHg 92%
02:00 +8°C° 0 mm 2 mps 752 mmHg 93%
03:00 +8°C° 0 mm 2 mps 752 mmHg 94%
04:00 +8°C° 0 mm 2 mps 752 mmHg 95%
05:00 +8°C° 0 mm 2 mps 752 mmHg 95%
06:00 +8°C° 0 mm 2 mps 752 mmHg 94%
07:00 +8°C° 0 mm 2 mps 752 mmHg 94%
08:00 +9°C° 0 mm 2 mps 753 mmHg 89%
09:00 +11°C° 0 mm 3 mps 753 mmHg 84%
10:00 +13°C° 0 mm 3 mps 753 mmHg 78%
11:00 +13°C° 0 mm 3 mps 753 mmHg 75%
12:00 +14°C° 0 mm 4 mps 753 mmHg 71%
13:00 +15°C° 0 mm 4 mps 752 mmHg 67%
14:00 +14°C° 0 mm 3 mps 752 mmHg 71%
15:00 +13°C° 0 mm 3 mps 752 mmHg 75%
16:00 +13°C° 0 mm 2 mps 752 mmHg 78%
17:00 +12°C° 0 mm 3 mps 752 mmHg 82%
18:00 +11°C° 0 mm 3 mps 752 mmHg 85%
19:00 +10°C° 0 mm 3 mps 752 mmHg 88%
20:00 +10°C° 0 mm 3 mps 752 mmHg 89%
21:00 +10°C° 0 mm 4 mps 752 mmHg 89%
22:00 +10°C° 0 mm 4 mps 752 mmHg 89%
23:00 +10°C° 0 mm 4 mps 751 mmHg 90%

26 October, Monday

Time Temperature Precipitation Wind Pressure Humidity
00:00 +10°C° 0 mm 4 mps 751 mmHg 90%
01:00 +10°C° 0 mm 4 mps 751 mmHg 90%
02:00 +10°C° 0 mm 4 mps 751 mmHg 91%
03:00 +8°C° 0 mm 4 mps 751 mmHg 92%
04:00 +8°C° 0 mm 4 mps 750 mmHg 92%
05:00 +8°C° 0 mm 4 mps 750 mmHg 92%
06:00 +8°C° 0 mm 4 mps 750 mmHg 91%
07:00 +7°C° 0 mm 5 mps 750 mmHg 91%
08:00 +9°C° 0 mm 5 mps 750 mmHg 86%
09:00 +10°C° 0 mm 5 mps 750 mmHg 82%
10:00 +12°C° 0 mm 5 mps 750 mmHg 78%
11:00 +13°C° 0 mm 5 mps 749 mmHg 76%
12:00 +13°C° 0 mm 5 mps 749 mmHg 73%
13:00 +14°C° 0 mm 5 mps 749 mmHg 71%
14:00 +14°C° 0 mm 5 mps 748 mmHg 74%
15:00 +13°C° 0 mm 5 mps 748 mmHg 77%
16:00 +12°C° 0 mm 4 mps 748 mmHg 80%
17:00 +12°C° 0.1 mm 4 mps 748 mmHg 82%
18:00 +12°C° 0.1 mm 5 mps 748 mmHg 84%
19:00 +12°C° 0.1 mm 5 mps 748 mmHg 85%
20:00 +12°C° 0.1 mm 5 mps 748 mmHg 86%
21:00 +12°C° 0.1 mm 4 mps 748 mmHg 86%
22:00 +11°C° 0.1 mm 4 mps 748 mmHg 87%
23:00 +11°C° 0 mm 4 mps 747 mmHg 88%

27 October, Tuesday

Time Temperature Precipitation Wind Pressure Humidity
00:00 +10°C° 0 mm 4 mps 747 mmHg 90%
01:00 +10°C° 0 mm 4 mps 747 mmHg 91%
02:00 +10°C° 0 mm 3 mps 747 mmHg 92%
03:00 +9°C° 0 mm 3 mps 747 mmHg 93%
04:00 +9°C° 0 mm 3 mps 747 mmHg 95%
05:00 +9°C° 0 mm 3 mps 748 mmHg 94%
06:00 +9°C° 0 mm 3 mps 748 mmHg 94%
07:00 +9°C° 0 mm 3 mps 748 mmHg 94%
08:00 +10°C° 0 mm 3 mps 748 mmHg 89%
09:00 +11°C° 0 mm 3 mps 748 mmHg 85%
10:00 +13°C° 0 mm 3 mps 748 mmHg 80%
11:00 +14°C° 0 mm 3 mps 749 mmHg 77%
12:00 +14°C° 0 mm 3 mps 749 mmHg 74%
13:00 +16°C° 0 mm 3 mps 749 mmHg 71%
14:00 +14°C° 0 mm 3 mps 749 mmHg 76%
15:00 +15°C° 0 mm 2 mps 749 mmHg 80%
16:00 +14°C° 0 mm 2 mps 749 mmHg 84%
17:00 +13°C° 0 mm 2 mps 750 mmHg 87%
18:00 +13°C° 0 mm 2 mps 750 mmHg 89%
19:00 +12°C° 0 mm 2 mps 750 mmHg 92%
20:00 +12°C° 0 mm 2 mps 751 mmHg 92%
21:00 +12°C° 0 mm 2 mps 751 mmHg 92%
22:00 +10°C° 0 mm 2 mps 751 mmHg 93%
23:00 +10°C° 0 mm 2 mps 751 mmHg 92%
Show more